Skip Page Navigation
NASA JPL Caltech
NASA Logo - Jet Propulsion Laboratory + View the NASA Portal
+ Center for Near-Earth Object Studies
JPL Home Earth Solar System Stars & Galaxies Technology
JPL Solar System Dynamics
BODIES ORBITS EPHEMERIDES TOOLS PHYSICAL DATA DISCOVERY FAQ SITE MAP
IMPORTANT: The SSD Announcement email list is now available. Major changes are coming in the near future, including possible hostname and/or URL changes. To be notified of such changes, subscribe to this email list.

Please visit this page for more details.


JPL Small-Body Database Browser
Search: [ help ]  
136627 (1994 PM19)
Classification: Outer Main-belt Asteroid          SPK-ID: 2136627
Ephemeris | Orbit Diagram | Orbital Elements | Mission Design | Physical Parameters | Discovery Circumstances | Close-Approach Data ]

[ show orbit diagram ]
Orbital Elements at Epoch 2458600.5 (2019-Apr-27.0) TDB
Reference: JPL 17 (heliocentric ecliptic J2000)
 Element Value Uncertainty (1-sigma)   Units 
e .2035710937796374 4.3399e-08  
a 3.212433548067773 3.7529e-08 au
q 2.558474936993215 1.4761e-07 au
i 1.194613802633326 5.8695e-06 deg
node 149.0135106998374 0.00024408 deg
peri 148.7491993003466 0.00024459 deg
M 129.4394515137391 1.3872e-05 deg
tp 2457844.339792520063
(2017-Mar-31.83979252)
8.2437e-05 TDB
period 2103.050279565526
5.76
3.6853e-05
1.009e-07
d
yr
n .1711799301699878 2.9997e-09 deg/d
Q 3.866392159142331 4.5169e-08 au
  Orbit Determination Parameters
   # obs. used (total)      320  
   data-arc span      8890 days (24.34 yr)  
   first obs. used      1994-08-12  
   last obs. used      2018-12-14  
   planetary ephem.      DE431  
   SB-pert. ephem.      SB431-N16  
   condition code      0  
   norm. resid. RMS      .59993  
   source      ORB  
   producer      Otto Matic  
   solution date      2019-Jul-13 07:15:08  

Additional Information
 Earth MOID = 1.54204 au 
 Jupiter MOID = 1.36087 au 
 T_jup = 3.158 
[ show covariance matrix ]

Ephemeris | Orbit Diagram | Orbital Elements | Mission Design | Physical Parameters | Discovery Circumstances | Close-Approach Data ]

Physical Parameter Table
Parameter Symbol Value Units Sigma Reference Notes
absolute magnitude H 15.6   n/a MPO426850  
diameter diameter 4.719 km 1.332 urn:nasa:pds:neowise_diameters_albedos::2.0[mainbelt] (http://adsabs.harvard.edu/abs/2011ApJ...741...68M)  
geometric albedo albedo 0.042   0.044 urn:nasa:pds:neowise_diameters_albedos::2.0[mainbelt] (http://adsabs.harvard.edu/abs/2011ApJ...741...68M)  

136627 (1994 PM19)          Discovered 1994-Aug-12 by Elst, E. W. at La Silla
Reference: 20061205/Numbers.arcLast Updated: 2006-12-13

[ show close-approach data ]
Alternate Designations
 1994 PM19 = 2000 SK199 
Ephemeris | Orbit Diagram | Orbital Elements | Mission Design | Physical Parameters | Discovery Circumstances | Close-Approach Data ]
ABOUT SSD CREDITS/AWARDS PRIVACY/COPYRIGHT GLOSSARY LINKS
FirstGov
(server date/time)  
NASA Home Page
Site Manager:   Ryan S. Park
Webmaster  Alan B. Chamberlin